Location: Unspecified
(0.0000°N, 0.0000°E)
Time: 22:57:28
(UTC+00:00)

FALCON 9 R/B - Visible Passes

Search period start: 28 November 2023 00:00
Search period end: 08 December 2023 00:00
Orbit: 195 x 53234 km, 20.4° (Epoch: 03 November)

Date Brightness Start Highest point End Pass type
(mag) Time Alt. Az. Time Alt. Az. Time Alt. Az.
28 Nov ? 13:57:46 10° WNW 15:30:38 38° WNW 19:32:44 10° WNW visible
29 Nov ? 06:01:19 10° SW 15:43:08 73° N 22:18:07 43° S visible
01 Dec ? 08:01:24 10° W 14:51:06 70° N 00:14:13 14° WSW visible
03 Dec ? 10:03:41 10° W 13:49:20 68° N 20:33:41 10° WNW visible
04 Dec ? 09:51:35 10° ENE 17:34:20 83° ENE 18:43:46 10° ESE visible
05 Dec ? 12:10:46 10° WNW 13:55:29 55° NW 19:41:47 10° WNW visible
06 Dec ? 04:24:46 10° SSW 04:27:00 23° SE 04:33:43 10° E visible
06 Dec ? 08:57:00 10° ENE 15:52:40 76° N 20:45:05 17° SE visible
07 Dec ? 14:33:36 10° WNW 15:53:42 26° WNW 18:38:05 10° WNW visible
